Simultaneous Nadir Overpasses (SNOs) Predictions

Prediction of SNOs between LANDSAT-8 and METOP-A Satellite Orbit:

Table of predicted SNOs for the next 14.0 days since TLE Epoch: 1/30/2016
Index Date (LANDSAT-8) Time (LANDSAT-8) Lat,Lon (LANDSAT-8) SZA (LANDSAT-8 ) Date (METOP-A) Time (METOP-A) Lat,Lon (METOP-A) SZA (METOP-A ) Distance(km) Time Diff (sec)
1 01/31/2016 12:21:57 81.13, 34.33 100.21 01/31/2016 12:21:51 81.13, 34.40 100.22 1.20 6
2 01/31/2016 13:11:23 -81.15,-157.74 79.76 01/31/2016 13:12:30 -81.14,-157.72 79.73 0.50 67
3 02/03/2016 07:06:45 -81.11, -67.17 80.63 02/03/2016 07:05:33 -81.11, -67.10 80.65 1.23 72
4 02/03/2016 07:56:11 81.11, 100.53 99.37 02/03/2016 07:56:13 81.12, 100.63 99.39 1.82 2
5 02/03/2016 08:45:02 -81.73, -77.76 78.80 02/03/2016 08:46:16 -81.32, -77.47 79.00 44.98 74
6 02/06/2016 02:41:00 -81.09, -0.99 81.51 02/06/2016 02:39:56 -81.10, -0.87 81.52 2.33 64
7 02/06/2016 03:30:25 81.12, 167.04 98.54 02/06/2016 03:30:35 81.13, 167.21 98.57 2.97 10
8 02/08/2016 22:15:14 -81.09, 65.49 82.38 02/08/2016 22:14:19 -81.09, 65.34 82.42 2.58 55
9 02/08/2016 23:04:39 81.12,-126.50 97.67 02/08/2016 23:04:58 81.12,-126.61 97.66 1.96 19
10 02/11/2016 17:49:27 -81.09, 131.92 83.29 02/11/2016 17:48:40 -81.10, 131.90 83.31 0.57 47




NCC Satellite Simultaneous Nadir Overpasses (SNOs) Prediction Service
